Showing default

CAPELLA-20 (ACADIA), 68485

Orbit data source: Space-Track

CAPELLA-20 (ACADIA), 68485 is a payload satellite owned by Capella Space (US) in SSO that was launched on Mon, 30 Mar 2026 UTC via an FALCON 9 launch vehicle from the Air Force Western Test Range (AFWTR). Payload-class satellites include a variety of spacecraft equipped with specific instruments for various scientific and technological missions. These include communications satellites like Starlink; space stations such as the ISS; scientific satellites like the Hubble; Earth observation satellites from companies like Planet Labs, Umbra, and HawkEye 360; GPS; miniature CubeSats for education and research; and military/defense satellites.

Loading next visibility...
Identifier
68485, 2026-067BX
Orbit
SSO
Country
Flag of USUS
Related business
Manufacturer
Capella Space
Mission
Operational Commercial Radar Imaging
Bus & Motor
ACADIA, Unknown motor
Mass
180 kg wet, ~150 kg dry
Launch date (UTC)
2026-03-30 (6 months ago)
Launch vehicle
FALCON 9
Launch site
Air Force Western Test Range (AFWTR)
Object type
Payload
Rocket body
Debris
Shape & HBR
Box + 2 Pan + 1 Dish + 1 Rod, 1.8 m
Radar Cross Section
0.463 m², Large (>1 m²)

Expand to show TLE details & history
Last TLE update: 3 days ago

TLE from 3 days ago
0 CAPELLA-20 (ACADIA)
1 68485U 26067BX  26260.81967816  .00004090  00000-0  42249-3 0  9991
2 68485  97.7635 217.6314 0002920  70.7006 289.4528 14.90689369 25535
Epoch: 2026-09-17T19:40Z
TLE epoch observation values (Epoch: 2026-09-17T19:40:20.193Z)
Latitude
0.00003°
Longitude
-74.20418°
Altitude
598.147 km
Speed
7.561 km/s
True Right ascension
14h 30m 31s
True Declination
0° 00' 00"
Sunlit
Object was in daylight at epoch
Visualization orbit readout
Latitude
Unknown
Longitude
Unknown
Altitude
Unknown
Speed
Unknown
Apparent Right ascension
Unknown
Apparent Declination
Unknown
Sunlit
N/A
Visualization observer readout
Local Sidereal Time
03:12:07
Azimuth
Unknown
Elevation
Unknown
Doppler factor
Unknown
Orbital elements
Apogee altitude
594.841 km
Perigee altitude
590.77 km
Semi-major axis
6,970.942 km
Eccentricity
0.00029
Inclination
97.7635°
RAAN
217.6314°
Arg. of periapsis
70.7006°
True anomaly
289.42125°
Mean anomaly
289.4528°
Eccentric anomaly
289.43702°
Mean motion
3.72912 °/min
Orbital period
96.54 mins
BSTAR
0.00042249
Loading maneuver chart data...
Computing Atmospheric mass density...
Loading historical data...
Loading historical data...
Loading historical data...
Loading historical data...
Loading historical data...
Loading historical data...
Loading historical data...

Documentation

Showing up to 5 results
|